x

Gravelly Shoals Light Mi (gslm4) Weather Station

10:40pm - Tue 31st Mar 2015 All times are CDT. -5 hours from GMT.

  • Wind
    10mph, 11mph gusts
  • Air Temp 32°f
  • Sea Pressure 1016.3mb
  • Gravelly Shoals Light Mi
  • Gravelly Shoals Light Mi

More Historic Weather Station data

Upgrade to MSW Pro to gain access to the past 30 days of data for over 8000 Wavebouys and Weather Stations around the globe.

Join Pro

Comparision Forecast

View Surf forecast
   
Tue 03/31 10:40pm 10 11 mph 1016.3mb 32f
10:30pm 9 13 mph 1016.6mb 32f
10:24pm 11 14 mph 1016.3mb 32f
10:20pm 10 14 mph 1016.3mb 32f
10:10pm 13 14 mph 1016.3mb 32f
10:00pm 13
mph
1015.9mb 32f
9:40pm 10 11 mph 1015.9mb 32f
9:30pm 9 11 mph 1015.9mb 32f
9:24pm 10 15 mph 1015.9mb 33f
9:20pm 10 13 mph 1015.9mb 33f
9:10pm 13 15 mph 1015.6mb 32f
9:00pm 14 15 mph 1015.6mb 33f
8:40pm 14 15 mph 1015.2mb 32f
8:30pm 13 15 mph 1015.6mb 32f
8:24pm 13 15 mph 1015.2mb 32f
8:20pm 13 15 mph 1014.9mb 32f
8:10pm 14
mph
1015.6mb 32f
8:00pm 11 14 mph 1015.2mb 32f
7:40pm 13 14 mph 1015.2mb 32f
7:30pm 11 13 mph 1014.9mb 32f
7:23pm 11 14 mph 1014.9mb 32f
7:20pm 11 13 mph 1014.9mb 32f
7:10pm 11 14 mph 1014.6mb 32f
7:00pm 11 13 mph 1014.6mb 32f
5:40pm 14 15 mph 1013.9mb 31f
5:30pm 14 15 mph 1013.9mb 31f
5:22pm 14 16 mph 1013.9mb 31f
5:20pm 14 15 mph 1013.9mb 31f
5:10pm 11 15 mph 1013.9mb 31f
5:00pm 13 14 mph 1013.5mb 31f
4:40pm 14 15 mph 1013.5mb 31f
4:30pm 15 16 mph 1013.5mb 31f
4:22pm 14 16 mph 1013.5mb 31f
4:20pm 14 15 mph 1013.5mb 31f
4:10pm 14 15 mph 1013.5mb 31f
4:00pm 14 16 mph 1013.2mb 31f
3:40pm 15 16 mph 1013.5mb 30f
3:30pm 13 15 mph 1013.5mb 30f
3:21pm 15 17 mph 1013.5mb 31f
3:20pm 15 17 mph 1013.5mb 31f
3:10pm 14 17 mph 1013.5mb 31f
3:00pm 14 16 mph 1013.5mb 31f
2:40pm 13 15 mph 1013.5mb 31f
2:30pm 13 16 mph 1013.5mb 31f
2:21pm 14 18 mph 1013.2mb 31f
2:20pm 14 17 mph 1013.2mb 31f
2:10pm 15 16 mph 1013.2mb 31f
2:00pm 15 16 mph 1013.2mb 31f
1:40pm 16 17 mph 1012.9mb 31f
1:30pm 15 18 mph 1012.5mb 32f
1:21pm 17
mph
1012.9mb 32f
1:20pm 17
mph
1012.5mb 32f
1:00pm 15 16 mph 1012.9mb 32f
12:40pm 15 16 mph 1012.5mb 32f
12:30pm 15 17 mph 1012.5mb 32f
12:20pm 16
mph
1012.5mb 32f
12:10pm 13 15 mph 1012.5mb 32f
12:00pm 13 14 mph 1012.2mb 32f
11:40am 10 14 mph 1012.5mb 32f
11:30am 11 14 mph 1012.2mb 32f
11:20am 13 16 mph 1012.2mb 32f
11:10am 13 14 mph 1012.2mb 33f
11:00am 13 14 mph 1012.2mb 33f
10:40am 14 16 mph 1012.2mb 33f
10:30am 14 16 mph 1011.9mb 33f
10:20am 14 17 mph 1011.9mb 33f
10:19am 14 20 mph 1011.9mb 33f
10:10am 15 18 mph 1011.9mb 32f
10:00am 17 18 mph 1011.9mb 32f
9:40am 18 20 mph 1011.5mb 33f
9:30am 17 20 mph 1011.5mb 32f
9:20am 17 18 mph 1011.2mb 33f
9:19am 16 18 mph 1011.5mb 33f
9:10am 16 18 mph 1011.2mb 33f
9:00am 15 17 mph 1011.2mb 33f
8:40am 14 15 mph 1010.8mb 33f
8:30am 11 14 mph 1010.8mb 32f
8:20am 11 14 mph 1010.8mb 32f
8:19am 14
mph
1010.8mb 33f
8:10am 10 11 mph 1010.5mb 33f
8:00am 9 10 mph 1010.5mb 33f
7:40am 7 8 mph 1010.5mb 33f
7:30am 3
mph
1010.8mb 33f
7:20am  -  5 mph 1010.8mb 33f
7:18am  -  6 mph 1010.8mb 33f
7:10am 5 6 mph 1010.8mb 33f
7:00am  -  mph 1010.8mb 33f
6:40am  -  mph 1010.5mb 33f
6:30am  -  mph 1010.5mb 33f
6:20am  -  3 mph 1010.5mb 33f
6:18am  -  3 mph 1010.5mb 33f
6:10am  -  mph 1010.5mb 33f
6:00am  -  mph 1010.5mb 33f
5:40am  -  mph 1010.5mb 33f
5:30am  -  mph 1010.5mb 33f
5:20am  -  1 mph 1010.5mb 33f
5:17am  -  3 mph 1010.5mb 33f
5:10am  -  2 mph 1010.5mb 33f
5:00am  -  1 mph 1010.5mb 33f
4:40am 1 2 mph 1010.8mb 33f
4:30am 1 3 mph 1010.8mb 33f
4:20am 1 7 mph 1010.8mb 33f
4:17am  -  14 mph 1010.8mb 33f
4:10am 8 13 mph 1010.5mb 33f
4:00am 10 14 mph 1010.5mb 34f
3:40am 11 13 mph 1010.5mb 34f
3:30am 10 14 mph 1010.5mb 34f
3:20am 13 14 mph 1010.8mb 35f
3:17am 11 14 mph 1010.8mb 35f
3:10am 11 14 mph 1010.8mb 35f
3:00am 10 11 mph 1011.2mb 35f
2:40am 11 13 mph 1011.2mb 34f
2:20am 8 9 mph 1011.9mb 33f
2:16am 6 11 mph 1011.9mb 33f
2:10am 3 8 mph 1011.9mb 33f
2:00am 8 9 mph 1012.2mb 34f
1:40am 8 10 mph 1012.2mb 34f
1:30am 10 11 mph 1012.2mb 34f
1:20am 10 11 mph 1012.2mb 34f
1:16am 10 14 mph 1012.2mb 35f
1:10am 10 11 mph 1012.2mb 35f
1:00am 11 13 mph 1012.2mb 35f
12:40am 13 14 mph 1012.2mb 38f
12:30am 14
mph
1012.5mb 37f
12:20am 13
mph
1012.5mb 37f
12:15am 13 15 mph 1012.5mb 36f
12:10am 13 14 mph 1012.5mb 37f
12:00am 14
mph
1012.5mb 35f
Mon 03/30 11:40pm 13
mph
1013.2mb 36f
11:30pm 11 13 mph 1013.2mb 36f
11:20pm 13
mph
1013.2mb 37f
11:15pm 8 9 mph 1013.2mb 37f
11:10pm 7 8 mph 1013.2mb 38f
11:00pm 8 9 mph 1013.2mb 38f
10:50pm 8 9 mph 1013.5mb 39f
10:40pm 8 9 mph 1013.5mb 39f
10:30pm 8 9 mph 1013.5mb 39f
10:20pm 8 9 mph 1013.9mb 39f
10:15pm 7 8 mph 1013.9mb 40f
10:10pm 8
mph
1013.9mb 40f
10:00pm 8
mph
1014.2mb 40f
9:50pm 8
mph
1014.2mb 40f
9:40pm 8
mph
1014.2mb 40f
9:30pm 7 8 mph 1014.2mb 40f
9:20pm 7
mph
1014.2mb 40f
9:14pm 7
mph
1014.2mb 40f
9:00pm 7
mph
1014.6mb 40f
8:50pm 7
mph
1014.6mb 40f
8:40pm 7
mph
1014.6mb 40f
8:30pm 3 5 mph 1017.9mb 40f
8:20pm 3
mph
1014.6mb 40f
8:14pm 3 8 mph 1014.6mb 40f
8:10pm 3
mph
1014.6mb 40f
8:00pm 3 5 mph 1014.2mb 40f
7:50pm 3 5 mph 1014.2mb 41f
7:40pm 5 7 mph 1014.2mb 41f
7:30pm 6 7 mph 1013.9mb 41f
7:20pm 7 8 mph 1013.9mb 41f
7:13pm 6 18 mph 1013.9mb 41f
7:10pm 6 8 mph 1013.9mb 41f
7:00pm 7 10 mph 1013.9mb 42f
6:50pm 10 13 mph 1013.9mb 42f
6:30pm 14 15 mph 1013.9mb 42f
6:20pm 15 20 mph 1013.9mb 42f
6:13pm 17 26 mph - 47f
6:10pm 17 21 mph 1013.9mb 42f
6:00pm 21 26 mph 1013.9mb 42f
5:50pm 17 21 mph 1014.2mb 42f
5:40pm 15 22 mph 1014.2mb 42f
5:30pm 16 23 mph 1013.9mb 42f
5:20pm 21 26 mph 1013.9mb 42f
5:13pm 18
mph
1013.9mb 42f
5:10pm 20 28 mph 1013.9mb 42f
5:00pm 24 29 mph 1013.9mb 42f
4:50pm 23 31 mph 1013.5mb 42f
4:40pm 22 33 mph 1013.5mb 42f
4:30pm 28 33 mph 1013.2mb 42f
4:20pm 28 34 mph 1013.2mb 42f
4:13pm 24 31 mph 1013.2mb 42f
4:10pm 26 34 mph 1013.2mb 42f
4:00pm 32 36 mph 1012.9mb 43f
3:40pm 28 36 mph 1012.9mb 43f
3:30pm 22 29 mph 1012.9mb 42f
3:20pm 25 31 mph 1012.5mb 43f
3:12pm 26
mph
1012.5mb 43f
3:10pm 26 32 mph 1012.5mb 43f
3:00pm 21 31 mph 1012.5mb 43f
2:50pm 24 32 mph 1012.5mb 43f
2:40pm 28 34 mph 1012.2mb 43f
2:30pm 21 32 mph 1012.2mb 42f
2:20pm 25 31 mph 1012.2mb 42f
2:11pm 28
mph
1012.2mb 42f
2:10pm 28 30 mph 1012.2mb 42f
2:00pm 30 36 mph 1012.2mb 42f
1:50pm 28 31 mph 1011.9mb 42f
1:40pm 21 31 mph 1011.9mb 42f
1:30pm 26 31 mph 1011.9mb 42f
1:20pm 24 31 mph 1011.9mb 42f
1:11pm 26
mph
1011.9mb 42f
1:10pm 26 33 mph 1011.9mb 42f
1:00pm 29 36 mph 1011.5mb 42f
12:50pm 30 33 mph 1011.5mb 42f
12:40pm 28 34 mph 1011.5mb 41f
12:30pm 31 36 mph 1011.5mb 41f
12:20pm 26 33 mph 1011.2mb 41f
12:10pm 26 33 mph 1011.2mb 42f
12:00pm 26 36 mph 1011.2mb 42f
11:50am 28 38 mph 1011.2mb 42f
11:40am 33 40 mph 1010.8mb 42f
11:30am 37 44 mph 1010.8mb 42f
11:20am 28 39 mph 1010.8mb 41f
11:10am 30 37 mph 1010.8mb 42f
11:00am 34 41 mph 1010.5mb 41f
10:50am 32 34 mph 1010.5mb 41f
10:40am 26 36 mph 1010.5mb 42f
10:20am 28 31 mph 1010.2mb 41f
10:10am 23 33 mph 1010.5mb 41f
10:00am 26 31 mph 1010.2mb 40f
9:50am 20 21 mph 1010.2mb 39f
9:40am 20 22 mph 1010.2mb 39f
9:30am 20 22 mph 1010.2mb 39f
9:20am 17 20 mph 1009.8mb 38f
9:10am 18 21 mph 1010.2mb 38f
9:09am 18 22 mph 1010.2mb 38f
9:00am 18 22 mph 1010.2mb 38f
8:50am 15 18 mph 1010.2mb 35f
8:40am 16 20 mph 1009.8mb 35f
8:30am 17 21 mph 1009.8mb 35f
8:20am 18 20 mph 1009.8mb 35f
8:10am 17 21 mph 1009.5mb 35f
8:09am 17 22 mph 1009.8mb 35f
8:00am 20 22 mph 1009.5mb 34f
7:50am 18 21 mph 1009.5mb 35f
7:40am 18 20 mph 1009.5mb 34f
7:30am 17 18 mph 1009.5mb 34f
7:20am 16 17 mph 1009.5mb 35f
7:10am 17 20 mph 1009.5mb 36f
7:08am 18 26 mph 1009.5mb 36f
7:00am 20 26 mph 1009.5mb 36f
6:50am 21 24 mph 1009.5mb 36f
6:40am 20 23 mph 1009.1mb 36f
6:30am 20 23 mph 1009.1mb 36f
6:20am 22 25 mph 1009.1mb 37f
6:10am 22 24 mph 1008.8mb 37f
6:08am 22
mph
1008.8mb 37f
6:00am 21 28 mph 1008.5mb 37f
5:50am 24 30 mph 1008.5mb 37f
5:40am 23 29 mph 1008.5mb 37f
5:34am 22 29 mph 1008.5mb 36f
5:30am 23 28 mph 1008.5mb 36f
5:20am 22 25 mph 1008.1mb 36f
5:07am 22
mph
1007.8mb 36f
5:00am 22 25 mph 1007.8mb 36f
4:50am 23 31 mph 1007.5mb 36f
4:40am 26 32 mph 1007.1mb 37f
4:30am 26 30 mph 1007.1mb 36f
4:27am 26 30 mph 1006.8mb 36f
4:20am 22 29 mph 1006.8mb 36f
4:10am 25 29 mph 1006.8mb 36f
4:07am 25
mph
1006.8mb 37f
4:00am 25 31 mph 1006.8mb 37f
3:50am 26 34 mph 1006.8mb 36f
3:40am 28 32 mph 1006.8mb 37f
3:30am 22 29 mph 1006.8mb 37f
3:20am 26 31 mph 1006.4mb 37f
3:10am 25 30 mph 1006.1mb 37f
3:09am 24 30 mph 1006.1mb 37f
3:00am 26 30 mph 1006.1mb 36f
2:50am 24 30 mph 1006.1mb 36f
2:40am 24 32 mph 1006.1mb 36f
2:30am 25 30 mph 1006.1mb 36f
2:20am 24 32 mph 1005.8mb 37f
2:10am 28 31 mph 1005.8mb 37f
2:06am 26
mph
1005.8mb 37f
2:00am 28 32 mph 1005.8mb 37f
1:50am 26 32 mph 1005.4mb 37f
1:40am 25 34 mph 1005.4mb 37f
1:30am 26 33 mph 1005.1mb 37f
1:20am 26 34 mph 1004.7mb 38f
1:10am 29 34 mph 1004.7mb 38f
1:06am 30
mph
1004.7mb 37f
1:03am 29
mph
1004.7mb 37f
1:00am 29 38 mph 1004.7mb 37f
12:50am 28 39 mph 1004.4mb 37f
12:40am 30 34 mph 1004.4mb 37f
12:30am 28 32 mph 1004.1mb 37f
12:20am 25 30 mph 1004.1mb 37f
12:10am 26 34 mph 1003.7mb 37f
12:00am 26 31 mph 1003.7mb 37f
Sun 03/29 11:40pm 24 28 mph 1003.7mb 36f
11:30pm 24 32 mph 1003.4mb 36f
11:20pm 25 33 mph 1003.4mb 35f
11:10pm 30 36 mph 1003.4mb 35f
11:05pm 32
mph
1003mb 35f
11:00pm 31 36 mph 1003mb 35f
10:50pm 30 33 mph 1003mb 35f
10:40pm 26 32 mph 1003.4mb 34f
10:30pm 22 32 mph 1003mb 34f
10:20pm 22 29 mph 1003mb 34f
10:10pm 22 29 mph 1003.4mb 34f
10:04pm 24
mph
1010.2mb 34f
10:00pm 25 29 mph 1003.4mb 34f
9:59pm 22 29 mph 1003.4mb 34f
9:50pm 11 26 mph 1003.4mb 34f
9:40pm 11 23 mph 1003.7mb 34f
9:30pm 14 24 mph 1003.7mb 33f
9:20pm 16 25 mph 1004.1mb 33f
9:10pm 18 24 mph 1004.1mb 33f
9:04pm 15 24 mph 1004.1mb 34f
9:00pm 17 23 mph 1004.1mb 34f
8:50pm 13 24 mph 1004.4mb 34f
8:40pm 8 14 mph 1004.4mb 33f
8:30pm 6 9 mph 1004.7mb 34f
8:20pm 5 9 mph 1004.7mb 33f
8:10pm 5 10 mph 1004.7mb 34f
8:03pm 6 16 mph 1004.7mb 34f
8:00pm 6 13 mph 1004.7mb 34f
7:50pm 7 14 mph 1004.7mb 34f
7:40pm 8 13 mph 1004.7mb 34f
7:30pm 7 14 mph 1005.1mb 34f
7:20pm 8 16 mph 1005.1mb 34f
7:10pm 7 15 mph 1005.1mb 34f
7:03pm 7 21 mph 1005.4mb 34f
7:00pm 10 18 mph 1005.4mb 34f
6:50pm 8 16 mph 1005.4mb 33f
6:20pm 10 18 mph 1006.4mb 32f
6:10pm 10 17 mph 1006.4mb 32f
6:02pm 13 20 mph 1006.8mb 32f
6:00pm 11 16 mph 1006.8mb 32f
5:50pm 9 13 mph 1007.1mb 32f
5:40pm 6 11 mph 1007.5mb 32f
5:30pm 5 10 mph 1007.8mb 32f
5:20pm 5 14 mph 1008.1mb 32f
5:10pm 11 21 mph 1008.1mb 32f
5:02pm 10 21 mph 1008.1mb 33f
5:00pm 11 20 mph 1008.1mb 33f
4:50pm 6 13 mph 1008.1mb 33f
4:40pm 6 15 mph 1007.8mb 33f
4:30pm 14 24 mph 1008.5mb 33f
4:20pm 8 24 mph 1008.5mb 33f
4:10pm 14 54 mph 1008.5mb 37f
4:02pm 32
mph
1009.1mb 37f
4:00pm 37 51 mph 1009.1mb 37f
3:50pm 8 15 mph 1008.5mb 38f
3:40pm 10 16 mph 1008.5mb 38f
3:30pm 7 25 mph 1008.8mb 39f
3:20pm 9 16 mph 1008.8mb 39f
3:10pm 11 16 mph 1008.8mb 38f
3:01pm 14 26 mph 1008.8mb 38f
3:00pm 14 23 mph 1009.1mb 38f
2:50pm 21 26 mph 1009.1mb 38f
2:40pm 18 22 mph 1009.5mb 38f
2:30pm 15 20 mph 1009.8mb 38f
2:20pm 13 16 mph 1010.2mb 38f
2:10pm 11 17 mph 1010.8mb 38f
2:01pm 14 28 mph 1010.8mb 37f
2:00pm 14 21 mph 1010.8mb 37f
1:50pm 16 26 mph 1011.2mb 37f
1:40pm 21 25 mph 1011.5mb 37f
1:30pm 17 26 mph 1012.2mb 37f
1:20pm 22 28 mph 1012.9mb 37f
1:00pm 15 24 mph 1013.9mb 36f
12:50pm 16 22 mph 1014.2mb 36f
12:40pm 14 20 mph 1014.6mb 36f
12:30pm 15 22 mph 1014.9mb 36f
12:20pm 14 20 mph 1015.2mb 35f
12:10pm 14 18 mph 1015.6mb 35f
12:00pm 14 22 mph 1015.6mb 35f
11:50am 15 22 mph 1015.6mb 35f
11:40am 14 21 mph 1015.9mb 34f
11:30am 15 22 mph 1016.6mb 34f
11:20am 14 18 mph 1016.9mb 34f
11:10am 13 17 mph 1017.3mb 33f
11:00am 13 18 mph 1017.6mb 33f
10:50am 8 13 mph 1018.3mb 32f
10:40am 6 10 mph 1018.6mb 32f
10:30am 6 9 mph 1018.6mb 31f
10:20am 6 10 mph 1019.3mb 30f
10:10am 7 10 mph 1019.3mb 29f
10:00am 7 10 mph 1019.6mb 29f
9:50am 3 8 mph 1020mb 28f
9:40am 2 9 mph 1020mb 28f
9:30am 6 10 mph 1020mb 28f
9:22am 5 9 mph 1020.3mb 27f
9:20am 3 7 mph 1020.3mb 27f
9:10am 3 9 mph 1020.7mb 26f
9:00am 3 8 mph 1021mb 26f
8:50am 3 7 mph 1021.3mb 25f
8:40am 3 8 mph 1021.7mb 25f
8:30am 5 9 mph 1021.7mb 25f
8:21am 6 18 mph 1021.7mb 25f
8:20am 6 15 mph 1021.7mb 25f
8:10am 10 16 mph 1021.7mb 24f
8:00am 13 18 mph 1021.3mb 24f
7:40am 7 11 mph 1022mb 24f
7:30am 7 13 mph 1022mb 23f
7:21am 6 11 mph 1022mb 23f
7:20am 6 11 mph 1022mb 23f
7:10am 5 8 mph 1022mb 22f
7:00am 3 7 mph 1022mb 22f
6:50am 3 9 mph 1022mb 22f
6:40am 3 8 mph 1022mb 21f
6:30am 2 7 mph 1022.4mb 21f
6:21am 5 8 mph 1022.4mb 21f
6:20am 5 8 mph 1022.4mb 21f
6:10am 1 7 mph 1022.7mb 21f
6:00am 2 6 mph 1022.7mb 22f
5:50am 2 6 mph 1022.4mb 22f
5:40am 2 7 mph 1022.4mb 22f
5:30am 1 6 mph 1022.4mb 22f
5:20am 3 11 mph 1022.4mb 22f
5:10am 3 9 mph 1022.7mb 22f
5:00am 5 9 mph 1022.7mb 22f
4:50am 2 7 mph 1022.7mb 22f
4:40am 2 11 mph 1022.7mb 22f
4:30am 7 11 mph 1023mb 22f
4:20am 7 13 mph 1023mb 22f
4:10am 6 11 mph 1023mb 22f
4:00am 6 13 mph 1023mb 23f
3:50am 6 15 mph 1023mb 23f
3:40am 1 5 mph 1023mb 23f
3:30am 2 8 mph 1023mb 23f
3:20am 5 9 mph 1023mb 24f
3:19am 5 11 mph 1023mb 24f
3:10am 6 10 mph 1023mb 24f
3:00am 7 11 mph 1023mb 24f
2:50am 7 11 mph 1023mb 25f
2:40am 2 6 mph 1023mb 25f
2:20am 2 9 mph 1023.4mb 26f
2:19am 3 15 mph 1023.4mb 26f
2:10am 5 10 mph 1023.4mb 26f
2:00am 7 14 mph 1023.7mb 26f
1:50am 13 15 mph 1024mb 25f
1:40am 13 15 mph 1024mb 26f
1:30am 10 13 mph 1024.4mb 27f
1:20am 9 11 mph 1024.4mb 27f
1:19am 10 21 mph 1024.4mb 27f
1:10am 10 14 mph 1024.4mb 27f
1:00am 14 16 mph 1024.4mb 27f
12:50am 15 18 mph 1024.4mb 28f
12:40am 16 21 mph 1024.4mb 28f
12:30am 18 21 mph 1024.4mb 27f
12:20am 18 22 mph 1024.4mb 27f
12:18am 18 22 mph 1024.4mb 27f
12:10am 20 21 mph 1024.4mb 27f
12:00am 17 21 mph 1024.4mb 27f
Sat 03/28 11:50pm 17 21 mph 1024.4mb 27f
11:40pm 18 21 mph 1024.4mb 27f
11:30pm 13 16 mph 1024.4mb 27f
11:20pm 7 11 mph 1024.4mb 28f
11:18pm 6 15 mph 1024.4mb 28f
11:10pm 3 8 mph 1024.4mb 28f
11:00pm 2 8 mph 1024.4mb 28f
10:50pm 6 14 mph 1024.7mb 28f
10:40pm 11 15 mph 1024.7mb 28f
10:30pm 3 9 mph 1024.7mb 28f
10:20pm 5 9 mph 1025.1mb 28f
10:17pm 5 9 mph 1024.7mb 28f
10:10pm 5 9 mph 1025.1mb 28f
10:00pm 3 9 mph 1024.7mb 28f
9:50pm 1 5 mph 1024.7mb 28f
9:40pm 1 5 mph 1024.7mb 29f
9:30pm 2 6 mph 1024.7mb 29f
9:20pm 2 6 mph 1024.7mb 29f
9:17pm 2 10 mph 1024.7mb 29f
9:00pm 7 10 mph 1024.7mb 29f
8:50pm 6 10 mph 1024.4mb 29f
8:40pm 7 9 mph 1024mb 29f
8:30pm 7 9 mph 1024mb 30f
8:20pm 7 9 mph 1024mb 30f
8:17pm 7 15 mph 1024mb 30f
8:10pm 8 10 mph 1024.4mb 30f
8:00pm 7 10 mph 1024mb 30f
7:50pm 9 15 mph 1024mb 30f
7:40pm 8 14 mph 1024mb 30f
7:30pm 10 15 mph 1024mb 30f
7:20pm 11 14 mph 1024mb 30f
7:16pm 10 18 mph 1024mb 30f
7:10pm 10 16 mph 1024mb 30f
7:00pm 10 15 mph 1024mb 30f
6:50pm 13 17 mph 1024mb 30f
6:30pm 15 17 mph 1024.4mb 30f
6:20pm 16 17 mph 1024.4mb 30f
6:16pm 16 18 mph 1024.4mb 30f
6:10pm 15 18 mph 1024.4mb 30f
6:00pm 16 17 mph 1024.7mb 30f
5:50pm 15 16 mph 1024.7mb 30f
5:40pm 13 16 mph 1024.7mb 30f
5:30pm 11 14 mph 1024.7mb 30f
5:20pm 9 14 mph 1024.4mb 30f
5:15pm 8 16 mph 1024.7mb 30f
5:10pm 10 14 mph 1024.7mb 30f
5:00pm 10 14 mph 1024.7mb 29f
4:50pm 10 14 mph 1024.4mb 29f
4:40pm 9 14 mph 1024.7mb 28f
4:30pm 13 16 mph 1024.4mb 27f
4:20pm 13 15 mph 1024.7mb 27f
4:15pm 14 15 mph 1024.7mb 27f
4:10pm 11 15 mph 1024.7mb 26f
4:00pm 14 15 mph 1024.7mb 26f
3:50pm 14 15 mph 1024.7mb 25f
3:40pm 13 14 mph 1025.1mb 25f
3:30pm 13 15 mph 1025.1mb 25f
3:20pm 13 15 mph 1025.4mb 25f
3:15pm 10 14 mph 1025.4mb 25f
3:10pm 8 14 mph 1025.4mb 25f
3:00pm 11 13 mph 1025.1mb 24f
2:50pm 10 13 mph 1025.4mb 24f
2:40pm 9 13 mph 1025.4mb 24f
2:30pm 9 13 mph 1025.4mb 24f
2:20pm 9 13 mph 1025.4mb 24f
2:14pm 9 13 mph 1025.4mb 24f
2:10pm 9 11 mph 1025.4mb 24f
2:00pm 9 13 mph 1025.7mb 24f
1:50pm 7 10 mph 1026.1mb 24f
1:40pm 9 10 mph 1026.1mb 23f
1:30pm 8 10 mph 1026.1mb 23f
1:20pm 8 10 mph 1026.1mb 23f
1:14pm 7 10 mph 1026.4mb 23f
1:10pm 8 10 mph 1026.4mb 23f
1:00pm 5 7 mph 1026.1mb 23f
12:50pm 6 8 mph 1026.1mb 23f
12:40pm 5 7 mph 1026.4mb 23f
12:30pm 6 7 mph 1026.4mb 23f
12:20pm 5 7 mph 1026.8mb 23f
12:13pm 3 9 mph 1026.4mb 23f
12:10pm 2 6 mph 1026.8mb 23f
12:00pm 3 5 mph 1026.8mb 23f
11:50am 3 7 mph 1026.8mb 23f
11:40am 5 8 mph 1026.8mb 23f
11:30am 5 9 mph 1026.4mb 22f
11:20am 7 10 mph 1026.8mb 22f
11:13am 8 11 mph 1026.8mb 22f
11:10am 7 9 mph 1026.8mb 22f
11:00am 7 10 mph 1026.8mb 22f
10:50am 8 10 mph 1026.8mb 22f
10:40am 8 10 mph 1026.8mb 22f
10:30am 8 11 mph 1027.1mb 22f
10:20am 7 11 mph 1026.8mb 22f
10:13am 8 15 mph 1026.8mb 22f
10:10am 8 11 mph 1026.8mb 22f
10:00am 9 13 mph 1026.8mb 22f
9:50am 9 14 mph 1026.8mb 22f
9:40am 11 13 mph 1026.4mb 22f
9:30am 9 14 mph 1026.4mb 22f
9:20am 13 15 mph 1026.4mb 21f
9:12am 11 15 mph 1026.4mb 21f
9:10am 13 15 mph 1026.4mb 21f
9:00am 13 14 mph 1026.1mb 21f
8:50am 13 14 mph 1026.1mb 21f
8:40am 10 13 mph 1026.1mb 20f
8:30am 11 15 mph 1026.1mb 20f
8:20am 11 15 mph 1025.7mb 19f
8:12am 13 17 mph 1025.7mb 19f
8:10am 11 14 mph 1025.7mb 19f
8:00am 14 16 mph 1025.7mb 18f
7:50am 15 17 mph 1025.7mb 18f
7:40am 14 16 mph 1025.7mb 18f
7:30am 15 16 mph 1025.4mb 17f
7:20am 14 17 mph 1025.1mb 17f
7:11am 14 17 mph 1025.1mb 17f
7:10am 14 15 mph 1025.1mb 17f
7:00am 14 16 mph 1025.1mb 18f
6:50am 14 16 mph 1024.7mb 17f
6:40am 14 17 mph 1024.7mb 17f
6:30am 15 17 mph 1024.4mb 17f
6:20am 15 17 mph 1024.4mb 17f
6:11am 15 18 mph 1024mb 16f
6:10am 15 17 mph 1024mb 16f
6:00am 14 17 mph 1024mb 16f
5:50am 15 18 mph 1023.7mb 17f
5:40am 15 17 mph 1023.7mb 17f
5:30am 16 17 mph 1023.7mb 16f
5:20am 15 18 mph 1023.7mb 16f
5:11am 16 20 mph 1023.4mb 16f
5:10am 16 18 mph 1023.4mb 16f
5:00am 16 20 mph 1023mb 16f
4:50am 16 18 mph 1023mb 16f
4:40am 16 20 mph 1023mb 16f
4:30am 16 18 mph 1023mb 16f
4:20am 16 20 mph 1022.7mb 16f